Change the Weather History Date:

Sunday, October 21, 2012

  Actual Average Record
Temperature  
Mean Temperature 75 °F -  
Max Temperature 84 °F 76 °F 93 °F (2003)
Min Temperature 66 °F 58 °F 55 °F (2005)
Cooling Degree Days 10    
Growing Degree Days 25 (Base 50)    
Moisture  
Dew Point 64 °F    
Average Humidity 65    
Maximum Humidity 83    
Minimum Humidity 46    
Precipitation  
Precipitation 0.00 in - - ()
Sea Level Pressure  
Sea Level Pressure 29.87 in    
Wind  
Wind Speed 3 mph ()    
Max Wind Speed 9 mph    
Max Gust Speed -    
Visibility 6.0 miles    
Events      
Averages and records for this station are not official NWS values.
T = Trace of Precipitation, MM = Missing Value Source: Averaged Metar Reports

Daily Weather History Graph

Daily Weather History Graph

Search for Another Location

Airport or City:

Trip Planner

Search our weather history database for the weather conditions in past years. The results will help you decide how hot, cold, wet, or windy it might be!

Date:

Astronomy

Oct. 21, 2012 Rise Set
Actual Time 5:48 AM IST 5:01 PM IST
Civil Twilight 5:23 AM IST 5:25 PM IST
Nautical Twilight 4:55 AM IST 5:54 PM IST
Astronomical Twilight 4:26 AM IST 6:22 PM IST
Moon 11:46 AM IST (10/21) 10:38 PM IST (10/21)
Length of Visible Light 12h 02m
Length of Day
11h 12m
Waxing Crescent, 42% of the Moon is Illuminated
Oct 21
Waxing Crescent
Oct 22
First Quarter
Oct 29
Full
Nov 7
Last Quarter
Nov 14
New

Hourly Weather History & Observations

Time (IST) Temp. Heat Index Dew Point Humidity Pressure Visibility Wind Dir Wind Speed Gust Speed Precip Events Conditions
12:50 AM 71.6 °F - 62.6 °F 73% 29.86 in - NE 2.3 mph - N/A   Clear
1:50 AM 71.6 °F - 62.6 °F 73% 29.86 in - ESE 2.3 mph - N/A   Clear
2:00 AM 71 °F - 63 °F 70% 29.86 in 6 mi ESE 2.3 mph - -  
2:50 AM 71.6 °F - 62.6 °F 73% 29.86 in - ENE 2.3 mph - N/A   Clear
3:50 AM 69.8 °F - 62.6 °F 78% 29.86 in - ESE 2.3 mph - N/A   Clear
4:50 AM 68.0 °F - 60.8 °F 78% 29.86 in - ENE 2.3 mph - N/A   Clear
5:50 AM 68.0 °F - 62.6 °F 83% 29.86 in - NE 3.5 mph - N/A   Clear
6:50 AM 68.0 °F - 62.6 °F 83% 29.86 in - NE 3.5 mph - N/A   Clear
7:50 AM 73.4 °F - 64.4 °F 73% 29.89 in - ESE 2.3 mph - N/A   Clear
8:00 AM 74 °F - 64 °F 63% 29.89 in 6 mi ESE 2.3 mph - -   Clear
8:50 AM 77.0 °F - 64.4 °F 65% 29.89 in - Variable 2.3 mph - N/A   Clear
9:50 AM 78.8 °F - 64.4 °F 61% 29.86 in - WNW 3.5 mph - N/A   Clear
10:50 AM 82.4 °F 83.4 °F 62.6 °F 51% 29.86 in - West 3.5 mph - N/A   Clear
11:50 AM 84.2 °F 85.6 °F 64.4 °F 51% 29.83 in - West 9.2 mph - N/A   Clear
12:50 PM 82.4 °F 83.9 °F 64.4 °F 54% 29.83 in - WNW 9.2 mph - N/A   Clear
1:50 PM 82.4 °F 83.9 °F 64.4 °F 54% 29.83 in - West 8.1 mph - N/A   Clear
2:00 PM 82 °F - 65 °F 46% 29.85 in 6 mi West 8.1 mph - -   Scattered Clouds
2:50 PM 82.4 °F 83.9 °F 64.4 °F 54% 29.83 in - NNW 9.2 mph - N/A   Clear
3:50 PM 80.6 °F 82.3 °F 64.4 °F 58% 29.86 in - WNW 6.9 mph - N/A   Clear
4:50 PM 78.8 °F - 64.4 °F 61% 29.86 in - NNW 8.1 mph - N/A   Clear
5:50 PM 78.8 °F - 66.2 °F 65% 29.86 in - NNW 5.8 mph - N/A   Clear
6:50 PM 77.0 °F - 66.2 °F 69% 29.86 in - NNW 5.8 mph - N/A   Clear
7:50 PM 77.0 °F - 64.4 °F 65% 29.89 in - North 3.5 mph - N/A   Clear
8:00 PM 77 °F - 65 °F 57% 29.90 in 6 mi East 3.5 mph - -  
8:50 PM 77.0 °F - 64.4 °F 65% 29.89 in - North 2.3 mph - N/A   Clear
9:50 PM 75.2 °F - 64.4 °F 69% 29.89 in - North 2.3 mph - N/A   Clear
10:50 PM 75.2 °F - 64.4 °F 69% 29.89 in - East 2.3 mph - N/A   Clear
11:50 PM 73.4 °F - 62.6 °F 69% 29.89 in - East 3.5 mph - N/A   Clear